QPF
0.00 0.00 0.00 0.00 0.00 0.00 0.00 0.00 0.00 0.00 0.00 0.00 0.00 0.00 0.00 0.00 0.00 0.00 0.00 0.00 0.00 0.00 0.00 0.00 0.00 0.00 0.01 0.01 0.01 0.02 0.02 0.02 0.02 0.02 0.03 0.03 0.04 0.04
0.00 0.00 0.00 0.00 0.00 0.00 0.00 0.00 0.00 0.00 0.00 0.00 0.00 0.00 0.00 0.00 0.00 0.00 0.00 0.00 0.00 0.00 0.00 0.00 0.00 0.00 0.01 0.01 0.01 0.02 0.02 0.02 0.03 0.03 0.04 0.04 0.04 0.05
0.00 0.00 0.00 0.00 0.00 0.00 0.00 0.00 0.00 0.00 0.00 0.00 0.00 0.00 0.00 0.00 0.00 0.00 0.00 0.00 0.00 0.00 0.00 0.00 0.00 0.00 0.01 0.01 0.01 0.02 0.03 0.03 0.03 0.04 0.04 0.05 0.05 0.05
0.00 0.00 0.00 0.00 0.00 0.00 0.00 0.00 0.00 0.00 0.00 0.00 0.00 0.00 0.00 0.00 0.00 0.00 0.00 0.00 0.00 0.00 0.00 0.00 0.00 0.00 0.01 0.01 0.01 0.02 0.02 0.02 0.03 0.03 0.03 0.04 0.04 0.05
0.00 0.00 0.00 0.00 0.00 0.00 0.00 0.00 0.00 0.00 0.01 0.01 0.00 0.00 0.00 0.00 0.00 0.00 0.00 0.00 0.00 0.00 0.00 0.00 0.00 0.00 0.00 0.01 0.01 0.01 0.02 0.02 0.02 0.02 0.02 0.03 0.03 0.04
0.00 0.00 0.00 0.00 0.00 0.00 0.00 0.01 0.01 0.01 0.01 0.02 0.01 0.00 0.00 0.00 0.00 0.00 0.00 0.00 0.00 0.00 0.00 0.00 0.00 0.00 0.00 0.00 0.01 0.01 0.01 0.01 0.01 0.01 0.02 0.02 0.03 0.03
0.00 0.00 0.00 0.00 0.00 0.00 0.01 0.01 0.02 0.02 0.03 0.03 0.02 0.01 0.01 0.01 0.01 0.00 0.01 0.00 0.00 0.00 0.00 0.00 0.00 0.00 0.00 0.00 0.00 0.00 0.00 0.00 0.01 0.01 0.01 0.02 0.02 0.03
0.00 0.00 0.00 0.00 0.00 0.01 0.02 0.02 0.03 0.03 0.03 0.03 0.02 0.02 0.01 0.00 0.01 0.01 0.02 0.02 0.01 0.00 0.00 0.00 0.00 0.00 0.00 0.00 0.00 0.00 0.00 0.01 0.01 0.02 0.02 0.03 0.03 0.04
0.00 0.00 0.00 0.00 0.00 0.01 0.02 0.04 0.07 0.07 0.05 0.03 0.03 0.01 0.00 0.01 0.01 0.03 0.02 0.02 0.01 0.00 0.00 0.00 0.00 0.00 0.00 0.00 0.00 0.00 0.00 0.01 0.01 0.02 0.03 0.03 0.04 0.04
0.00 0.00 0.00 0.00 0.00 0.01 0.02 0.03 0.04 0.05 0.06 0.08 0.09 0.03 0.01 0.00 0.01 0.02 0.02 0.03 0.02 0.00 0.01 0.01 0.00 0.00 0.00 0.00 0.00 0.00 0.00 0.01 0.01 0.02 0.03 0.03 0.04 0.04
0.00 0.00 0.00 0.00 0.00 0.01 0.04 0.04 0.02 0.01 0.02 0.05 0.09 0.09 0.05 0.03 0.03 0.07 0.09 0.08 0.04 0.01 0.00 0.01 0.00 0.00 0.00 0.00 0.00 0.00 0.00 0.00 0.01 0.01 0.02 0.03 0.03 0.04
0.00 0.00 0.00 0.01 0.01 0.02 0.05 0.05 0.03 0.01 0.01 0.02 0.05 0.07 0.08 0.07 0.07 0.08 0.09 0.08 0.05 0.02 0.00 0.00 0.00 0.00 0.01 0.00 0.00 0.00 0.00 0.00 0.00 0.01 0.01 0.02 0.02 0.03
0.00 0.00 0.00 0.01 0.02 0.03 0.04 0.05 0.03 0.01 0.02 0.03 0.03 0.03 0.03 0.04 0.04 0.04 0.04 0.04 0.03 0.02 0.00 0.00 0.01 0.01 0.02 0.01 0.00 0.00 0.00 0.00 0.00 0.00 0.00 0.01 0.01 0.02
0.01 0.01 0.01 0.01 0.02 0.03 0.05 0.07 0.05 0.05 0.08 0.07 0.04 0.02 0.01 0.01 0.01 0.01 0.02 0.02 0.01 0.01 0.00 0.00 0.01 0.02 0.03 0.02 0.00 0.00 0.00 0.00 0.00 0.00 0.00 0.00 0.01 0.01
0.01 0.01 0.01 0.02 0.03 0.03 0.05 0.07 0.09 0.11 0.13 0.10 0.04 0.01 0.00 0.00 0.01 0.01 0.01 0.01 0.01 0.01 0.00 0.01 0.01 0.01 0.03 0.03 0.01 0.00 0.00 0.00 0.00 0.00 0.01 0.01 0.01 0.01
0.01 0.01 0.02 0.04 0.04 0.04 0.04 0.05 0.08 0.10 0.09 0.07 0.03 0.01 0.01 0.01 0.02 0.01 0.01 0.01 0.01 0.01 0.00 0.00 0.00 0.01 0.03 0.02 0.02 0.01 0.00 0.00 0.00 0.00 0.01 0.01 0.01 0.01
0.02 0.03 0.03 0.04 0.06 0.06 0.05 0.04 0.04 0.06 0.07 0.07 0.05 0.03 0.02 0.02 0.01 0.01 0.01 0.01 0.01 0.01 0.00 0.00 0.00 0.01 0.01 0.02 0.03 0.01 0.01 0.01 0.01 0.01 0.03 0.02 0.01 0.01
0.06 0.07 0.04 0.04 0.04 0.05 0.05 0.04 0.04 0.04 0.04 0.04 0.05 0.04 0.02 0.02 0.01 0.01 0.01 0.01 0.01 0.00 0.00 0.00 0.01 0.02 0.02 0.01 0.01 0.01 0.01 0.01 0.01 0.02 0.03 0.04 0.02 0.01
0.06 0.06 0.04 0.03 0.03 0.03 0.03 0.03 0.03 0.02 0.02 0.03 0.03 0.03 0.02 0.01 0.01 0.01 0.01 0.01 0.01 0.00 0.00 0.00 0.01 0.03 0.04 0.02 0.00 0.00 0.02 0.02 0.02 0.02 0.02 0.03 0.03 0.02
0.04 0.03 0.03 0.03 0.03 0.03 0.03 0.03 0.03 0.03 0.04 0.03 0.02 0.02 0.02 0.01 0.01 0.01 0.01 0.01 0.01 0.01 0.01 0.00 0.01 0.03 0.04 0.03 0.02 0.00 0.01 0.03 0.03 0.03 0.01 0.01 0.02 0.03
0.02 0.02 0.03 0.03 0.03 0.03 0.03 0.03 0.03 0.03 0.03 0.02 0.02 0.01 0.01 0.01 0.01 0.01 0.01 0.01 0.01 0.02 0.01 0.01 0.00 0.01 0.03 0.05 0.04 0.01 0.00 0.01 0.03 0.05 0.04 0.04 0.04 0.04
0.02 0.02 0.02 0.03 0.03 0.03 0.04 0.04 0.03 0.03 0.02 0.02 0.02 0.01 0.01 0.01 0.01 0.01 0.01 0.01 0.01 0.01 0.01 0.00 0.00 0.01 0.03 0.05 0.03 0.01 0.00 0.00 0.01 0.01 0.03 0.05 0.07 0.07
0.02 0.02 0.02 0.02 0.02 0.03 0.03 0.03 0.03 0.02 0.01 0.01 0.01 0.01 0.01 0.01 0.01 0.01 0.01 0.01 0.01 0.01 0.01 0.01 0.01 0.01 0.02 0.03 0.03 0.02 0.01 0.00 0.01 0.01 0.00 0.01 0.02 0.04
MSLP
1013.60 1014.07 1014.55 1014.99 1015.37 1015.65 1015.84 1015.92 1015.93 1015.89 1015.84 1015.79 1015.79 1015.84 1015.94 1016.07 1016.21 1016.35 1016.45 1016.51 1016.53 1016.51 1016.47 1016.42 1016.38 1016.37 1016.38 1016.41 1016.45 1016.48 1016.47 1016.43 1016.34 1016.20 1016.02 1015.81 1015.59 1015.37
1011.93 1012.39 1012.88 1013.35 1013.78 1014.12 1014.37 1014.53 1014.62 1014.66 1014.69 1014.72 1014.79 1014.91 1015.07 1015.25 1015.43 1015.58 1015.70 1015.76 1015.77 1015.74 1015.67 1015.61 1015.55 1015.53 1015.53 1015.55 1015.58 1015.61 1015.60 1015.56 1015.46 1015.32 1015.14 1014.92 1014.70 1014.49
1010.28 1010.71 1011.17 1011.64 1012.08 1012.47 1012.77 1013.01 1013.18 1013.31 1013.44 1013.57 1013.74 1013.95 1014.17 1014.41 1014.64 1014.83 1014.96 1015.02 1015.02 1014.96 1014.88 1014.79 1014.70 1014.65 1014.63 1014.64 1014.65 1014.66 1014.65 1014.60 1014.49 1014.35 1014.16 1013.95 1013.73 1013.52
1008.70 1009.06 1009.48 1009.92 1010.36 1010.76 1011.11 1011.40 1011.66 1011.89 1012.11 1012.36 1012.63 1012.92 1013.23 1013.53 1013.80 1014.02 1014.16 1014.23 1014.22 1014.15 1014.04 1013.92 1013.82 1013.74 1013.70 1013.68 1013.68 1013.67 1013.64 1013.57 1013.46 1013.31 1013.11 1012.90 1012.68 1012.47
1007.20 1007.48 1007.84 1008.24 1008.65 1009.05 1009.43 1009.78 1010.10 1010.42 1010.74 1011.08 1011.44 1011.82 1012.20 1012.56 1012.87 1013.12 1013.28 1013.34 1013.33 1013.25 1013.13 1013.00 1012.88 1012.79 1012.72 1012.69 1012.67 1012.65 1012.60 1012.52 1012.39 1012.22 1012.02 1011.80 1011.58 1011.36
1005.79 1005.99 1006.29 1006.64 1007.02 1007.41 1007.80 1008.17 1008.55 1008.93 1009.32 1009.73 1010.17 1010.61 1011.05 1011.46 1011.80 1012.07 1012.25 1012.33 1012.32 1012.25 1012.13 1012.00 1011.88 1011.78 1011.72 1011.67 1011.63 1011.59 1011.53 1011.43 1011.29 1011.11 1010.90 1010.67 1010.43 1010.20
1004.48 1004.62 1004.84 1005.14 1005.48 1005.85 1006.23 1006.62 1007.02 1007.43 1007.87 1008.33 1008.81 1009.30 1009.77 1010.21 1010.59 1010.88 1011.07 1011.18 1011.19 1011.14 1011.04 1010.93 1010.82 1010.73 1010.66 1010.61 1010.57 1010.51 1010.43 1010.31 1010.15 1009.95 1009.73 1009.48 1009.23 1008.98
1003.26 1003.34 1003.52 1003.76 1004.05 1004.38 1004.74 1005.12 1005.52 1005.94 1006.39 1006.87 1007.37 1007.88 1008.38 1008.83 1009.23 1009.54 1009.77 1009.90 1009.95 1009.93 1009.87 1009.79 1009.71 1009.64 1009.58 1009.52 1009.47 1009.39 1009.29 1009.15 1008.97 1008.75 1008.51 1008.24 1007.97 1007.69
1002.14 1002.17 1002.29 1002.48 1002.73 1003.01 1003.33 1003.68 1004.05 1004.46 1004.90 1005.37 1005.87 1006.38 1006.88 1007.35 1007.76 1008.10 1008.36 1008.54 1008.63 1008.66 1008.65 1008.61 1008.56 1008.51 1008.46 1008.40 1008.33 1008.24 1008.11 1007.95 1007.74 1007.50 1007.23 1006.94 1006.64 1006.34
1001.10 1001.09 1001.16 1001.30 1001.50 1001.73 1002.00 1002.30 1002.63 1003.00 1003.41 1003.86 1004.34 1004.84 1005.34 1005.81 1006.25 1006.62 1006.91 1007.14 1007.28 1007.37 1007.41 1007.41 1007.40 1007.36 1007.32 1007.26 1007.17 1007.06 1006.90 1006.71 1006.47 1006.20 1005.91 1005.59 1005.27 1004.94
1000.14 1000.09 1000.12 1000.21 1000.35 1000.53 1000.74 1000.98 1001.26 1001.58 1001.95 1002.36 1002.82 1003.30 1003.80 1004.28 1004.74 1005.14 1005.48 1005.76 1005.96 1006.10 1006.19 1006.23 1006.25 1006.23 1006.19 1006.11 1006.00 1005.86 1005.67 1005.44 1005.17 1004.88 1004.55 1004.21 1003.86 1003.50
999.25 999.17 999.16 999.20 999.29 999.41 999.55 999.74 999.96 1000.23 1000.55 1000.93 1001.36 1001.83 1002.32 1002.82 1003.29 1003.73 1004.12 1004.44 1004.70 1004.89 1005.02 1005.10 1005.14 1005.13 1005.08 1004.99 1004.85 1004.68 1004.45 1004.19 1003.88 1003.55 1003.20 1002.83 1002.45 1002.06
998.41 998.31 998.27 998.27 998.30 998.37 998.45 998.58 998.74 998.96 999.24 999.58 999.99 1000.45 1000.95 1001.45 1001.96 1002.43 1002.85 1003.22 1003.53 1003.76 1003.93 1004.04 1004.09 1004.08 1004.02 1003.91 1003.75 1003.53 1003.27 1002.97 1002.62 1002.25 1001.86 1001.46 1001.05 1000.63
997.63 997.51 997.44 997.41 997.40 997.41 997.44 997.51 997.63 997.80 998.04 998.36 998.76 999.21 999.71 1000.23 1000.76 1001.26 1001.72 1002.13 1002.47 1002.73 1002.93 1003.06 1003.11 1003.11 1003.03 1002.90 1002.70 1002.45 1002.15 1001.79 1001.41 1000.99 1000.56 1000.12 999.67 999.21
996.88 996.76 996.67 996.61 996.56 996.53 996.52 996.54 996.62 996.76 996.99 997.29 997.68 998.13 998.64 999.18 999.72 1000.24 1000.73 1001.16 1001.52 1001.81 1002.02 1002.16 1002.22 1002.20 1002.11 1001.95 1001.72 1001.42 1001.07 1000.67 1000.23 999.76 999.27 998.78 998.28 997.79
996.18 996.06 995.96 995.87 995.79 995.72 995.68 995.68 995.73 995.86 996.08 996.38 996.77 997.23 997.74 998.29 998.84 999.37 999.87 1000.31 1000.68 1000.98 1001.19 1001.33 1001.38 1001.35 1001.23 1001.04 1000.76 1000.42 1000.01 999.55 999.04 998.51 997.96 997.41 996.86 996.32
995.51 995.39 995.28 995.18 995.08 994.99 994.94 994.92 994.97 995.10 995.32 995.63 996.03 996.50 997.02 997.57 998.12 998.65 999.14 999.57 999.94 1000.22 1000.43 1000.55 1000.58 1000.52 1000.38 1000.14 999.82 999.41 998.93 998.40 997.81 997.21 996.59 995.96 995.36 994.77
994.88 994.77 994.66 994.55 994.44 994.34 994.28 994.27 994.33 994.48 994.72 995.05 995.47 995.95 996.47 997.02 997.55 998.06 998.53 998.93 999.27 999.52 999.70 999.79 999.79 999.70 999.51 999.22 998.83 998.35 997.79 997.16 996.49 995.80 995.09 994.40 993.74 993.11
994.33 994.22 994.10 993.98 993.87 993.77 993.72 993.74 993.83 994.01 994.28 994.64 995.07 995.56 996.08 996.60 997.11 997.58 998.00 998.35 998.64 998.85 998.98 999.03 998.99 998.84 998.60 998.24 997.78 997.22 996.56 995.84 995.07 994.28 993.49 992.72 992.01 991.35
993.87 993.75 993.63 993.50 993.39 993.31 993.29 993.33 993.46 993.68 993.99 994.38 994.83 995.32 995.81 996.30 996.76 997.17 997.52 997.81 998.03 998.18 998.25 998.24 998.14 997.94 997.63 997.20 996.66 996.00 995.25 994.43 993.55 992.67 991.79 990.97 990.21 989.52
993.55 993.41 993.28 993.15 993.04 992.98 992.99 993.07 993.25 993.51 993.85 994.26 994.72 995.19 995.65 996.08 996.47 996.80 997.06 997.27 997.41 997.48 997.48 997.41 997.24 996.98 996.61 996.11 995.49 994.75 993.90 992.98 992.02 991.04 990.10 989.21 988.42 987.72
993.38 993.22 993.07 992.94 992.84 992.81 992.85 992.97 993.18 993.48 993.85 994.26 994.70 995.13 995.53 995.89 996.19 996.42 996.58 996.69 996.74 996.73 996.66 996.52 996.30 995.99 995.56 995.00 994.31 993.50 992.58 991.58 990.54 989.49 988.49 987.57 986.75 986.05
993.37 993.20 993.04 992.90 992.82 992.80 992.87 993.02 993.26 993.57 993.94 994.34 994.73 995.10 995.42 995.68 995.87 995.99 996.05 996.05 996.00 995.91 995.78 995.59 995.32 994.97 994.51 993.91 993.18 992.32 991.35 990.30 989.21 988.12 987.08 986.13 985.30 984.60
Thickness
5507 5500 5494 5491 5483 5477 5469 5461 5453 5457 5469 5464 5455 5453 5446 5440 5436 5432 5430 5427 5425 5423 5421 5419 5417 5416 5415 5414 5414 5414 5415 5416 5417 5419 5421 5423 5426 5429
5499 5493 5489 5484 5476 5469 5461 5454 5447 5445 5454 5458 5450 5443 5436 5432 5426 5421 5418 5414 5413 5411 5409 5406 5404 5403 5402 5401 5400 5400 5400 5401 5402 5404 5406 5408 5411 5414
5491 5486 5483 5475 5469 5462 5454 5447 5441 5435 5439 5448 5435 5430 5423 5418 5414 5409 5405 5402 5400 5398 5396 5394 5392 5390 5388 5387 5387 5386 5387 5387 5388 5390 5391 5393 5396 5399
5483 5477 5475 5467 5461 5454 5447 5441 5435 5430 5427 5432 5424 5416 5411 5406 5400 5396 5392 5389 5387 5384 5383 5381 5380 5378 5376 5375 5374 5373 5372 5372 5373 5374 5375 5377 5379 5381
5475 5470 5466 5457 5454 5447 5440 5435 5429 5423 5419 5418 5417 5406 5400 5393 5387 5383 5380 5377 5374 5372 5370 5369 5368 5366 5364 5362 5361 5359 5358 5358 5358 5358 5358 5359 5361 5363
5465 5461 5457 5450 5446 5440 5433 5428 5421 5415 5409 5406 5404 5396 5389 5382 5374 5371 5367 5364 5362 5360 5358 5357 5355 5353 5352 5349 5348 5346 5344 5343 5342 5342 5342 5342 5343 5344
5453 5450 5447 5443 5438 5431 5425 5419 5411 5406 5399 5394 5392 5385 5379 5371 5366 5361 5356 5353 5351 5347 5345 5343 5341 5340 5337 5335 5332 5330 5329 5327 5326 5326 5326 5326 5326 5326
5443 5440 5437 5433 5430 5427 5423 5417 5407 5397 5391 5385 5382 5377 5372 5364 5356 5349 5343 5339 5339 5338 5333 5334 5329 5329 5325 5321 5318 5316 5315 5313 5312 5311 5310 5310 5310 5309
5432 5430 5427 5425 5421 5416 5412 5410 5405 5399 5390 5378 5374 5371 5362 5354 5344 5337 5333 5331 5331 5328 5320 5323 5319 5318 5315 5311 5308 5305 5303 5301 5299 5297 5296 5295 5294 5293
5422 5420 5417 5415 5410 5404 5400 5396 5393 5388 5382 5375 5369 5362 5353 5344 5335 5329 5324 5320 5319 5316 5309 5310 5310 5308 5305 5302 5297 5293 5291 5288 5286 5284 5283 5282 5280 5279
5411 5409 5406 5404 5401 5396 5391 5387 5382 5378 5371 5366 5359 5353 5345 5337 5327 5318 5313 5310 5312 5310 5302 5298 5300 5296 5295 5293 5288 5283 5280 5277 5274 5272 5270 5268 5266 5263
5400 5397 5396 5394 5391 5387 5382 5377 5373 5367 5357 5351 5346 5342 5336 5330 5324 5315 5309 5303 5302 5301 5296 5287 5285 5278 5281 5284 5278 5273 5268 5264 5260 5258 5256 5254 5251 5247
5389 5387 5384 5383 5382 5378 5374 5369 5364 5355 5346 5339 5333 5328 5322 5317 5312 5307 5301 5295 5292 5290 5284 5274 5271 5265 5263 5270 5269 5264 5258 5254 5249 5247 5244 5241 5239 5235
5380 5377 5374 5373 5371 5368 5364 5360 5354 5346 5337 5330 5324 5320 5314 5309 5303 5296 5291 5285 5281 5278 5272 5263 5259 5255 5252 5255 5259 5257 5250 5244 5239 5238 5235 5233 5230 5228
5369 5368 5366 5364 5361 5357 5353 5349 5344 5336 5329 5323 5318 5313 5307 5300 5292 5285 5279 5274 5269 5265 5260 5253 5248 5244 5241 5242 5246 5245 5241 5239 5232 5229 5227 5225 5224 5221
5358 5357 5356 5353 5348 5344 5340 5336 5331 5326 5321 5316 5310 5304 5296 5289 5282 5275 5269 5263 5258 5257 5251 5245 5239 5234 5232 5232 5232 5234 5231 5228 5228 5222 5220 5221 5220 5218
5350 5345 5340 5336 5332 5329 5325 5322 5318 5313 5310 5305 5299 5293 5286 5279 5273 5266 5259 5253 5249 5247 5243 5237 5231 5227 5225 5223 5223 5225 5223 5222 5220 5217 5215 5219 5222 5220
5344 5339 5333 5327 5322 5318 5314 5311 5306 5302 5298 5293 5288 5283 5277 5270 5264 5257 5250 5244 5241 5238 5234 5229 5222 5219 5218 5219 5217 5217 5217 5217 5216 5214 5211 5215 5223 5223
5333 5329 5324 5318 5313 5308 5304 5300 5296 5292 5286 5281 5277 5272 5266 5260 5255 5249 5242 5236 5233 5230 5226 5220 5215 5211 5213 5218 5219 5213 5211 5212 5211 5211 5211 5213 5221 5227
5322 5318 5314 5310 5305 5300 5295 5290 5286 5281 5276 5271 5267 5262 5256 5251 5246 5240 5235 5229 5226 5223 5220 5215 5209 5205 5205 5210 5214 5213 5206 5205 5206 5210 5213 5216 5221 5228
5314 5309 5305 5301 5297 5292 5287 5282 5277 5272 5267 5262 5257 5252 5247 5242 5237 5233 5228 5225 5221 5217 5215 5212 5207 5205 5202 5201 5206 5213 5208 5204 5205 5208 5213 5217 5225 5232
5306 5302 5298 5294 5290 5285 5279 5274 5269 5264 5259 5254 5249 5244 5239 5234 5230 5225 5221 5216 5214 5211 5209 5207 5203 5198 5195 5196 5201 5207 5209 5209 5209 5212 5216 5222 5227 5240
5299 5295 5291 5287 5282 5277 5272 5267 5262 5257 5252 5246 5241 5236 5231 5226 5222 5219 5215 5211 5208 5206 5203 5201 5198 5195 5194 5195 5197 5202 5205 5209 5213 5219 5227 5233 5239 5249